1483257600.8,45266,10.5,73618.3,-2.27,-39.23,-40.03,0,*58
1483257602.04,45267,10.5,73614.3,-2.29,-38.85,-39.65,0,*54
1483257603.27,45268,10.5,73618.5,-2.27,-38.61,-39.41,0,*59
1483257604.53,45269,10.5,73616.5,-2.23,-38.29,-39.23,0,*54
1483257605.76,45270,10.5,73620.8,-2.23,-38.61,-39.41,0,*54
1483257607.05,45271,10.5,73618.8,-2.21,-39.15,-39.97,0,*5E
1483257608.28,45272,10.5,73616.3,-2.23,-39.41,-40.03,0,*5D
1483257609.54,45273,10.5,73620.0,-2.21,-38.73,-39.59,0,*5F
1483257610.81,45274,10.5,73616.3,-2.21,-38.85,-39.71,0,*5B
1483257612.03,45275,10.5,73618.8,-2.21,-38.73,-39.35,0,*53
1483257613.29,45276,10.5,73618.0,-2.21,-38.61,-39.23,0,*54
1483257614.55,45277,10.5,73616.3,-2.21,-38.85,-39.59,0,*52
1483257615.83,45278,10.5,73614.3,-2.21,-38.79,-39.53,0,*54
1483257617.09,45279,10.5,73614.8,-2.21,-38.85,-39.59,0,*5C
1483257618.35,45280,10.5,73618.5,-2.21,-38.85,-39.53,0,*50
1483257619.61,45281,10.5,73618.3,-2.21,-38.97,-39.71,0,*52
1483257620.87,45282,10.5,73616.5,-2.21,-38.85,-39.59,0,*58
1483257622.13,45283,10.5,73618.0,-2.21,-38.61,-39.41,0,*5A
1483257623.32,45284,10.5,73618.0,-2.19,-38.61,-39.35,0,*55
1483257624.58,45285,10.5,73618.3,-2.17,-38.49,-39.09,0,*5F
1483257625.82,45286,10.5,73612.5,-2.19,-38.85,-39.71,0,*5D
1483257627.09,45287,10.5,73616.0,-2.17,-38.79,-39.53,0,*51
1483257628.37,45288,10.5,73614.8,-2.17,-38.79,-39.53,0,*5E
1483257629.6,45289,10.5,73618.8,-2.19,-38.85,-39.71,0,*52
1483257630.83,45290,10.5,73612.5,-2.19,-38.97,-39.71,0,*59
1483257632.05,45291,10.5,73618.8,-2.19,-38.97,-39.71,0,*58
1483257633.31,45292,10.5,73616.3,-2.17,-38.49,-39.35,0,*56
1483257634.53,45293,10.5,73618.0,-2.19,-38.73,-39.53,0,*50
1483257635.78,45294,10.5,73616.8,-2.17,-38.91,-39.85,0,*5E
1483257637.03,45295,10.5,73618.3,-2.17,-38.97,-39.71,0,*52
1483257638.28,45296,10.5,73616.0,-2.19,-39.03,-39.79,0,*5B
1483257639.55,45297,10.5,73616.0,-2.17,-38.67,-39.29,0,*52
1483257640.81,45298,10.5,73614.5,-2.17,-38.29,-38.97,0,*53
1483257642.05,45299,10.5,73614.8,-2.17,-38.67,-39.35,0,*51
1483257643.33,45300,10.5,73616.5,-2.17,-38.79,-39.53,0,*5F
1483257644.56,45301,10.5,73614.8,-2.15,-38.79,-39.47,0,*59
1483257645.81,45302,10.5,73618.3,-2.17,-38.35,-39.15,0,*57
1483257647.02,45303,10.5,73612.8,-2.15,-38.43,-39.09,0,*58
1483257648.3,45304,10.5,73612.8,-2.13,-38.49,-39.23,0,*5B
1483257649.56,45305,10.5,73612.8,-2.13,-38.61,-39.29,0,*5A
1483257650.84,45306,10.5,73608.5,-2.13,-38.91,-39.59,0,*51
1483257652.06,45307,10.5,73610.5,-2.15,-38.73,-39.53,0,*50
1483257653.29,45308,10.5,73612.3,-2.13,-38.43,-39.09,0,*55
1483257654.56,45309,10.5,73614.3,-2.15,-38.49,-39.15,0,*55
1483257655.81,45310,10.5,73612.0,-2.13,-38.23,-38.85,0,*5F
1483257657.07,45311,10.5,73612.8,-2.13,-38.23,-38.85,0,*5E
1483257658.32,45312,10.5,73614.5,-2.13,-38.43,-39.23,0,*56
1483257659.57,45313,10.5,73614.3,-2.11,-38.43,-39.23,0,*55
1483257660.82,45314,10.5,73612.0,-2.11,-38.43,-39.23,0,*52
1483257662.05,45315,10.5,73610.3,-2.09,-38.55,-39.23,0,*5D
1483257663.3,45316,10.5,73610.3,-2.11,-38.61,-39.53,0,*57
1483257664.55,45317,10.5,73610.5,-2.11,-38.61,-39.41,0,*55
1483257665.78,45318,10.5,73616.8,-2.11,-38.61,-39.35,0,*59
1483257667.01,45319,10.5,73612.5,-2.09,-38.85,-39.59,0,*51
1483257668.27,45320,10.5,73612.3,-2.09,-38.79,-39.41,0,*51
1483257669.52,45321,10.5,73614.0,-2.09,-38.79,-39.53,0,*53
1483257670.77,45322,10.5,73612.3,-2.09,-38.79,-39.53,0,*50
1483257672.02,45323,10.5,73614.0,-2.09,-38.67,-39.53,0,*5E
1483257673.24,45324,10.5,73612.3,-2.09,-39.03,-39.85,0,*51
1483257674.47,45325,10.5,73610.8,-2.07,-38.73,-39.47,0,*56
1483257675.7,45326,10.5,73608.0,-2.09,-39.23,-40.03,0,*51
1483257676.95,45327,10.5,73616.5,-2.09,-39.03,-39.79,0,*51
1483257678.21,45328,10.5,73614.5,-2.09,-39.15,-39.97,0,*59
1483257679.47,45329,10.5,73618.5,-2.11,-39.15,-40.03,0,*52
1483257680.68,45330,10.5,73614.5,-2.09,-39.35,-40.15,0,*56
1483257681.93,45331,10.5,73612.0,-2.11,-38.97,-39.79,0,*53
1483257683.16,45332,10.5,73612.8,-2.11,-38.61,-39.35,0,*51
1483257684.41,45333,10.5,73612.3,-2.09,-38.67,-39.59,0,*55
1483257685.65,45334,10.5,73614.5,-2.09,-38.85,-39.71,0,*54
1483257686.86,45335,10.5,73618.0,-2.09,-38.67,-39.35,0,*59
1483257688.1,45336,10.5,73612.0,-2.09,-38.85,-39.59,0,*5C
1483257689.3,45337,10.5,73616.0,-2.09,-38.55,-39.35,0,*5A
1483257690.49,45338,10.5,73618.0,-2.09,-38.55,-39.35,0,*55
1483257691.72,45339,10.5,73618.3,-2.09,-38.55,-39.23,0,*53
1483257692.95,45340,10.5,73616.0,-2.09,-38.61,-39.41,0,*5E
1483257694.17,45341,10.5,73614.8,-2.09,-38.61,-39.41,0,*5F
1483257695.37,45342,10.5,73612.5,-2.09,-38.61,-39.35,0,*5F
1483257696.6,45343,10.5,73612.5,-2.09,-38.61,-39.23,0,*59
1483257697.82,45344,10.5,73616.5,-2.05,-38.73,-39.53,0,*56
1483257699.05,45345,10.5,73612.5,-2.07,-38.61,-39.35,0,*56
1483257700.31,45346,10.5,73616.0,-2.07,-38.97,-39.71,0,*5C
1483257701.57,45347,10.5,73618.5,-2.07,-39.29,-39.91,0,*57
1483257702.8,45348,10.5,73618.0,-2.07,-38.61,-39.47,0,*5E
1483257704.08,45349,10.5,73618.8,-2.07,-38.91,-39.71,0,*55
1483257705.37,45350,10.5,73616.3,-2.07,-39.15,-39.97,0,*58
1483257706.66,45351,10.5,73618.5,-2.07,-39.29,-40.09,0,*5F
1483257707.95,45352,10.5,73616.5,-2.07,-39.15,-40.09,0,*53
1483257709.17,45353,10.5,73612.0,-2.05,-39.65,-40.35,0,*58
1483257710.43,45354,10.5,73612.3,-2.09,-39.71,-40.41,0,*55
1483257711.66,45355,10.5,73614.0,-2.09,-38.97,-39.79,0,*58
1483257712.93,45356,10.5,73614.8,-2.11,-38.79,-39.53,0,*5A
1483257714.19,45357,10.5,73616.3,-2.11,-38.97,-39.71,0,*5B
1483257715.44,45358,10.5,73618.0,-2.09,-38.79,-39.53,0,*5D
1483257716.69,45359,10.5,73616.8,-2.09,-38.67,-39.53,0,*53
1483257717.95,45360,10.5,73616.8,-2.07,-39.09,-39.79,0,*56
1483257719.18,45361,10.5,73618.5,-2.05,-38.97,-39.79,0,*53
1483257720.41,45362,10.5,73618.5,-2.07,-38.61,-39.35,0,*53
1483257721.7,45363,10.5,73618.8,-2.07,-38.49,-39.15,0,*5A
1483257722.93,45364,10.5,73616.5,-2.07,-38.73,-39.47,0,*53
1483257724.19,45365,10.5,73622.5,-2.07,-39.15,-39.91,0,*58
1483257725.43,45366,10.5,73618.8,-2.07,-39.65,-40.47,0,*59
1483257726.64,45367,10.5,73618.3,-2.05,-39.65,-40.35,0,*5F
1483257727.87,45368,10.5,73616.3,-2.09,-39.53,-40.35,0,*59
1483257729.12,45369,10.5,73616.5,-2.07,-38.97,-39.71,0,*51
1483257730.38,45370,10.5,73618.0,-2.09,-39.03,-39.71,0,*5B
1483257731.64,45371,10.5,73616.5,-2.07,-38.91,-39.65,0,*5B
1483257732.9,45372,10.5,73616.3,-2.07,-38.97,-39.71,0,*5B
1483257734.13,45373,10.5,73616.5,-2.07,-38.61,-39.47,0,*56
1483257735.39,45374,10.5,73618.3,-2.07,-38.79,-39.65,0,*58
1483257736.65,45375,10.5,73622.5,-2.09,-38.79,-39.59,0,*58
1483257737.91,45376,10.5,73620.0,-2.07,-38.79,-39.47,0,*5A
1483257739.17,45377,10.5,73616.0,-2.07,-39.35,-40.29,0,*54
1483257740.45,45378,10.5,73614.8,-2.07,-39.29,-39.71,0,*55
1483257741.74,45379,10.5,73612.3,-2.07,-39.29,-40.09,0,*55
1483257742.99,45380,10.5,73614.0,-2.09,-39.03,-39.79,0,*5C
1483257744.25,45381,10.5,73614.0,-2.07,-38.61,-39.29,0,*53
1483257745.51,45382,10.5,73618.0,-2.07,-38.55,-39.15,0,*58
1483257746.78,45383,10.5,73614.5,-2.07,-38.49,-39.09,0,*59
1483257748.07,45384,10.5,73616.0,-2.07,-38.49,-39.15,0,*53
1483257749.27,45385,10.5,73616.3,-2.05,-38.61,-39.35,0,*58
1483257750.56,45386,10.5,73618.3,-2.07,-38.49,-39.15,0,*51
1483257751.76,45387,10.5,73614.3,-2.05,-38.73,-39.35,0,*59
1483257752.99,45388,10.5,73618.0,-2.05,-38.49,-39.35,0,*5F
1483257754.19,45389,10.5,73618.8,-2.05,-38.35,-39.09,0,*5A
1483257755.42,45390,10.5,73618.8,-2.01,-38.55,-39.29,0,*52
1483257756.67,45391,10.5,73618.0,-2.01,-38.49,-39.23,0,*54
1483257757.92,45392,10.5,73616.5,-2.01,-38.23,-39.03,0,*59
1483257759.15,45393,10.5,73618.0,-2.01,-38.55,-39.29,0,*51
1483257760.39,45394,10.5,73618.5,-1.99,-38.85,-39.65,0,*51
1483257761.62,45395,10.5,73616.3,-2.01,-38.85,-39.59,0,*5D
1483257762.85,45396,10.5,73614.0,-2.01,-38.91,-39.65,0,*54
1483257764.09,45397,10.5,73616.5,-2.01,-39.23,-39.91,0,*56
1483257765.34,45398,10.5,73616.8,-2.01,-38.91,-39.59,0,*55
1483257766.55,45399,10.5,73616.8,-2.01,-39.09,-39.85,0,*55
1483257767.76,45400,10.5,73614.8,-2.01,-39.09,-39.91,0,*57
1483257768.99,45401,10.5,73618.0,-1.99,-39.09,-39.91,0,*54
1483257770.25,45402,10.5,73612.5,-1.99,-39.23,-40.03,0,*5A
1483257771.5,45403,10.5,73616.5,-1.99,-38.91,-39.85,0,*53
1483257772.73,45404,10.5,73618.3,-2.01,-38.55,-39.41,0,*56
1483257773.94,45405,10.5,73618.3,-2.01,-38.67,-39.47,0,*50
1483257775.17,45406,10.5,73620.3,-2.01,-38.43,-39.23,0,*57
1483257776.44,45407,10.5,73620.3,-1.99,-38.23,-39.03,0,*50
1483257777.72,45408,10.5,73618.5,-1.99,-38.11,-38.91,0,*54
1483257778.99,45409,10.5,73618.8,-1.99,-38.67,-39.41,0,*58
1483257780.24,45410,10.5,73618.3,-2.01,-38.67,-39.41,0,*52
1483257781.46,45411,10.5,73622.0,-2.01,-38.55,-39.41,0,*52
1483257782.72,45412,10.5,73620.3,-2.01,-38.49,-39.23,0,*58
1483257783.97,45413,10.5,73618.3,-1.99,-38.55,-39.41,0,*52
1483257785.22,45414,10.5,73618.8,-1.99,-38.55,-39.29,0,*5B
1483257786.48,45415,10.5,73618.3,-1.99,-38.55,-39.41,0,*54
1483257787.76,45416,10.5,73616.0,-1.99,-38.49,-39.23,0,*5E
1483257788.98,45417,10.5,73616.0,-1.97,-38.61,-39.53,0,*5C
1483257790.2,45418,10.5,73612.8,-1.95,-38.61,-39.35,0,*51
1483257791.43,45419,10.5,73614.5,-1.97,-38.49,-39.35,0,*58
1483257792.65,45420,10.5,73618.3,-1.97,-38.97,-39.79,0,*59
1483257793.94,45421,10.5,73614.5,-1.95,-39.15,-39.97,0,*51
1483257795.2,45422,10.5,73616.0,-1.97,-39.15,-39.97,0,*50
1483257796.42,45423,10.5,73616.8,-1.97,-38.97,-39.79,0,*5A
1483257797.65,45424,10.5,73618.3,-1.95,-38.97,-39.65,0,*52
1483257798.87,45425,10.5,73616.3,-1.97,-39.23,-40.03,0,*51
1483257800.1,45426,10.5,73616.0,-1.97,-39.03,-39.85,0,*50
1483257801.38,45427,10.5,73616.5,-1.95,-39.41,-40.21,0,*55
1483257802.61,45428,10.5,73618.3,-1.97,-39.53,-40.35,0,*5E
1483257803.87,45429,10.5,73618.5,-1.97,-39.59,-40.41,0,*56
1483257805.13,45430,10.5,73618.0,-1.97,-39.15,-39.97,0,*53
1483257806.41,45431,10.5,73620.3,-1.99,-39.29,-40.09,0,*5A
1483257807.7,45432,10.5,73616.0,-1.99,-39.23,-40.09,0,*53
1483257808.96,45433,10.5,73616.8,-1.99,-39.47,-40.29,0,*52
1483257810.22,45434,10.5,73618.0,-1.99,-39.65,-40.41,0,*5B
1483257811.45,45435,10.5,73620.0,-2.01,-39.71,-40.47,0,*5B
1483257812.66,45436,10.5,73622.8,-2.01,-39.65,-40.47,0,*5D
1483257813.93,45437,10.5,73618.0,-2.01,-39.71,-40.59,0,*56
1483257815.15,45438,10.5,73620.3,-2.01,-40.03,-40.79,0,*50
1483257816.36,45439,10.5,73622.0,-2.01,-39.65,-40.47,0,*52
1483257817.62,45440,10.5,73618.8,-2.01,-39.71,-40.59,0,*56
1483257818.83,45441,10.5,73618.8,-2.05,-39.65,-40.47,0,*59
1483257820.07,45442,10.5,73616.0,-2.05,-39.71,-40.47,0,*5F
1483257821.3,45443,10.5,73618.5,-2.05,-39.53,-40.47,0,*5E
1483257822.51,45444,10.5,73618.8,-2.05,-39.91,-40.65,0,*57
1483257823.76,45445,10.5,73622.5,-2.05,-39.79,-40.65,0,*50
1483257825.02,45446,10.5,73618.0,-2.05,-39.97,-40.85,0,*5D
1483257826.28,45447,10.5,73616.0,-2.07,-40.29,-41.11,0,*59
1483257827.51,45448,10.5,73620.0,-2.07,-39.47,-40.35,0,*57
1483257828.77,45449,10.5,73618.5,-2.09,-39.53,-40.21,0,*58
1483257830.04,45450,10.56,73624.5,-2.09,-39.79,-40.59,0,*57
1483257831.3,45451,10.5,73622.8,-2.09,-39.79,-40.41,0,*5F
1483257832.56,45452,10.5,73618.0,-2.09,-39.53,-40.21,0,*52
1483257833.78,45453,10.5,73620.3,-2.09,-39.23,-39.85,0,*54
1483257835.02,45454,10.5,73626.5,-2.09,-39.71,-40.53,0,*51
1483257836.24,45455,10.56,73620.3,-2.09,-40.15,-40.91,0,*52
1483257837.54,45456,10.5,73604.3,-2.11,-39.79,-40.59,0,*58
1483257838.81,45457,10.5,73604.0,-2.09,-39.79,-40.41,0,*59
1483257840.06,45458,10.5,73602.0,-2.09,-38.79,-39.53,0,*5A
1483257841.32,45459,10.5,73602.0,-2.11,-38.43,-39.15,0,*59
1483257842.51,45460,10.5,73606.8,-2.09,-38.61,-39.35,0,*58
1483257843.74,45461,10.5,73612.0,-2.07,-38.61,-39.35,0,*57
1483257844.94,45462,10.5,73608.8,-2.05,-38.61,-39.35,0,*56
1483257846.17,45463,10.5,73616.5,-2.07,-38.61,-39.35,0,*55
1483257847.43,45464,10.5,73614.8,-2.05,-38.49,-39.29,0,*57
1483257848.66,45465,10.5,73616.5,-2.07,-38.35,-38.97,0,*5B
1483257849.89,45466,10.56,73620.3,-2.05,-38.29,-38.97,0,*57
1483257851.12,45467,10.56,73620.5,-2.01,-38.11,-38.85,0,*5A
1483257852.37,45468,10.5,73620.5,-2.01,-38.11,-38.91,0,*50
1483257853.62,45469,10.56,73622.5,-2.01,-38.11,-39.03,0,*5B
1483257854.89,45470,10.5,73618.3,-1.99,-38.11,-39.03,0,*51
1483257856.17,45471,10.5,73616.0,-1.99,-38.23,-38.91,0,*5B
1483257857.4,45472,10.5,73618.5,-1.99,-38.05,-38.85,0,*59
1483257858.64,45473,10.5,73620.0,-1.97,-37.87,-38.79,0,*50
1483257859.89,45474,10.5,73620.5,-1.95,-38.05,-38.79,0,*50
1483257861.12,45475,10.5,73620.5,-1.97,-38.35,-39.15,0,*5B
1483257862.35,45476,10.5,73618.0,-1.95,-38.17,-38.85,0,*52
1483257863.6,45477,10.56,73622.3,-1.95,-38.67,-39.65,0,*5B
1483257864.88,45478,10.5,73616.0,-1.95,-39.23,-39.97,0,*58
1483257866.11,45479,10.5,73620.3,-1.95,-38.61,-39.35,0,*56
1483257867.36,45480,10.5,73616.8,-1.95,-38.35,-39.15,0,*53
1483257868.61,45481,10.56,73618.0,-1.95,-38.23,-38.97,0,*5E
1483257869.84,45482,10.56,73622.8,-1.95,-38.17,-38.97,0,*5A
1483257871.07,45483,10.56,73622.0,-1.93,-37.99,-38.73,0,*5E
1483257872.32,45484,10.5,73620.3,-1.93,-37.99,-38.79,0,*53
1483257873.55,45485,10.56,73618.8,-1.93,-38.17,-38.79,0,*5B
1483257874.8,45486,10.5,73616.5,-1.91,-37.93,-38.73,0,*53
1483257876.08,45487,10.56,73620.8,-1.91,-38.11,-38.91,0,*5B
1483257877.36,45488,10.5,73618.8,-1.91,-38.11,-38.91,0,*54
1483257878.64,45489,10.5,73618.5,-1.87,-37.99,-38.79,0,*5B
1483257879.84,45490,10.5,73620.0,-1.89,-38.05,-38.73,0,*5D
1483257881.07,45491,10.5,73618.5,-1.87,-37.87,-38.61,0,*54
1483257882.31,45492,10.5,73622.8,-1.89,-37.87,-38.49,0,*53
1483257883.56,45493,10.5,73620.8,-1.87,-38.49,-39.35,0,*5B
1483257884.78,45494,10.5,73622.3,-1.89,-38.55,-39.41,0,*5C
1483257885.99,45495,10.5,73622.3,-1.89,-38.05,-38.85,0,*51
1483257887.22,45496,10.56,73620.8,-1.87,-38.05,-38.85,0,*5C
1483257888.45,45497,10.56,73624.5,-1.85,-37.99,-38.85,0,*55
1483257889.67,45498,10.5,73620.0,-1.85,-38.23,-38.85,0,*54
1483257890.93,45499,10.56,73620.5,-1.85,-37.99,-38.79,0,*58
1483257892.13,45500,10.56,73622.0,-1.85,-38.17,-38.97,0,*50
1483257893.38,45501,10.56,73624.0,-1.85,-38.29,-39.03,0,*50
1483257894.64,45502,10.56,73620.8,-1.83,-38.17,-38.91,0,*52
1483257895.87,45503,10.56,73620.8,-1.85,-38.05,-38.79,0,*50
1483257897.13,45504,10.56,73620.8,-1.83,-38.35,-39.15,0,*59
1483257898.38,45505,10.56,73618.3,-1.83,-38.35,-39.15,0,*58
1483257899.6,45506,10.56,73620.8,-1.85,-38.43,-39.03,0,*5B
1483257900.83,45507,10.5,73620.3,-1.85,-38.43,-39.29,0,*52
1483257902.09,45508,10.56,73622.8,-1.85,-38.79,-39.59,0,*53
1483257903.34,45509,10.5,73616.5,-1.83,-38.61,-39.41,0,*54
1483257904.58,45510,10.5,73616.3,-1.83,-38.43,-39.09,0,*50
1483257905.81,45511,10.56,73620.5,-1.83,-38.35,-39.09,0,*50
1483257907.07,45512,10.56,73622.8,-1.83,-38.23,-39.09,0,*54
1483257908.3,45513,10.56,73620.8,-1.83,-38.35,-38.97,0,*54
1483257909.53,45514,10.56,73622.0,-1.83,-38.35,-38.97,0,*53
1483257910.81,45515,10.56,73620.3,-1.83,-38.23,-38.91,0,*53
1483257912.07,45516,10.56,73622.3,-1.83,-38.17,-38.91,0,*57
1483257913.32,45517,10.56,73622.8,-1.83,-38.35,-39.15,0,*5B
1483257914.61,45518,10.56,73622.5,-1.77,-38.29,-39.15,0,*52
1483257915.84,45519,10.56,73624.5,-1.81,-38.17,-38.79,0,*5C
1483257917.04,45520,10.56,73620.0,-1.81,-38.17,-38.97,0,*56
1483257918.31,45521,10.56,73620.0,-1.77,-38.05,-38.79,0,*5D
1483257919.59,45522,10.56,73620.3,-1.77,-37.99,-38.67,0,*5B
1483257920.84,45523,10.56,73622.0,-1.81,-38.11,-38.79,0,*53
1483257922.07,45524,10.56,73622.8,-1.81,-38.05,-38.79,0,*51
1483257923.36,45525,10.56,73620.5,-1.77,-37.99,-38.79,0,*53
1483257924.6,45526,10.56,73624.0,-1.77,-38.05,-38.85,0,*59
1483257925.83,45527,10.56,73620.0,-1.75,-38.11,-38.97,0,*5C
1483257927.06,45528,10.56,73620.8,-1.75,-38.79,-39.47,0,*51
1483257928.29,45529,10.56,73622.0,-1.75,-38.67,-39.47,0,*5F
1483257929.55,45530,10.56,73622.0,-1.75,-38.49,-39.41,0,*5D
1483257930.81,45531,10.5,73622.0,-1.77,-38.29,-38.97,0,*52
1483257932.06,45532,10.56,73624.0,-1.77,-38.11,-38.97,0,*5A
1483257933.3,45533,10.56,73622.8,-1.77,-38.05,-38.85,0,*5D
1483257934.51,45534,10.56,73620.3,-1.75,-38.05,-38.85,0,*58
1483257935.72,45535,10.5,73618.8,-1.75,-38.05,-38.85,0,*59
1483257936.98,45536,10.56,73620.8,-1.75,-38.49,-39.41,0,*5B
1483257938.27,45537,10.56,73624.3,-1.73,-38.79,-39.59,0,*56
1483257939.5,45538,10.56,73624.3,-1.75,-38.79,-39.47,0,*50
1483257940.76,45539,10.56,73622.5,-1.75,-38.79,-39.59,0,*5E
1483257942.0,45540,10.56,73624.0,-1.75,-39.29,-40.15,0,*52
1483257943.24,45541,10.56,73624.0,-1.75,-39.47,-40.21,0,*5C
1483257944.45,45542,10.56,73626.8,-1.75,-39.65,-40.47,0,*5F
1483257945.68,45543,10.56,73620.8,-1.81,-39.41,-40.47,0,*53
1483257946.93,45544,10.56,73620.3,-1.77,-38.85,-39.65,0,*5A
1483257948.19,45545,10.56,73618.3,-1.77,-38.97,-39.79,0,*55
1483257949.48,45546,10.56,73618.8,-1.77,-38.79,-39.59,0,*54
1483257950.73,45547,10.56,73616.3,-1.81,-38.91,-39.71,0,*50
1483257951.96,45548,10.56,73616.0,-1.81,-38.61,-39.41,0,*53
1483257953.21,45549,10.56,73622.5,-1.81,-38.23,-38.91,0,*58
1483257954.45,45550,10.56,73626.0,-1.77,-38.05,-38.85,0,*58
1483257955.68,45551,10.56,73626.8,-1.77,-38.05,-38.85,0,*59
1483257956.97,45552,10.56,73622.5,-1.77,-38.79,-39.41,0,*58
1483257958.23,45553,10.56,73616.8,-1.77,-39.03,-39.65,0,*53
1483257959.47,45554,10.56,73612.0,-1.77,-38.97,-39.65,0,*58
1483257960.76,45555,10.56,73604.5,-1.77,-38.29,-39.15,0,*5B
1483257961.99,45556,10.56,73610.5,-1.75,-38.11,-38.97,0,*5A
1483257963.25,45557,10.56,73616.8,-1.77,-38.11,-38.85,0,*5A
1483257964.49,45558,10.56,73614.8,-1.77,-38.05,-38.85,0,*50
1483257965.74,45559,10.56,73614.5,-1.75,-38.23,-39.03,0,*58
1483257967.01,45560,10.56,73610.8,-1.75,-38.79,-39.59,0,*52
1483257968.24,45561,10.56,73612.8,-1.75,-38.61,-39.41,0,*53
1483257969.52,45562,10.56,73614.3,-1.77,-38.29,-39.03,0,*58
1483257970.75,45563,10.56,73616.3,-1.75,-38.11,-38.97,0,*5C
1483257971.98,45564,10.56,73618.0,-1.75,-38.23,-38.97,0,*5A
1483257973.19,45565,10.56,73622.5,-1.75,-38.05,-38.97,0,*5F
1483257974.44,45566,10.56,73620.5,-1.73,-38.55,-39.23,0,*51
1483257975.7,45567,10.56,73620.3,-1.75,-39.03,-39.97,0,*5B
1483257976.95,45568,10.56,73622.0,-1.73,-38.35,-39.15,0,*5C
1483257978.19,45569,10.56,73622.3,-1.75,-38.43,-39.23,0,*5F
1483257979.41,45570,10.56,73622.3,-1.73,-38.55,-39.35,0,*51
1483257980.64,45571,10.56,73624.3,-1.75,-38.43,-39.23,0,*56
1483257981.89,45572,10.56,73620.0,-1.73,-38.73,-39.41,0,*54
1483257983.17,45573,10.56,73620.8,-1.73,-38.91,-39.71,0,*5A
1483257984.44,45574,10.56,73622.0,-1.75,-39.15,-39.97,0,*5E
1483257985.72,45575,10.56,73618.8,-1.73,-39.41,-40.29,0,*53
1483257986.97,45576,10.56,73618.5,-1.75,-39.97,-40.79,0,*58
1483257988.23,45577,10.56,73616.0,-1.77,-40.03,-40.79,0,*58
1483257989.44,45578,10.56,73608.5,-1.81,-40.35,-41.11,0,*54
1483257990.71,45579,10.56,73612.0,-1.81,-40.09,-40.97,0,*55
1483257991.95,45580,10.56,73616.5,-1.81,-40.15,-40.97,0,*5E
1483257993.19,45581,10.56,73616.5,-1.83,-40.47,-41.17,0,*53
1483257994.43,45582,10.56,73608.0,-1.85,-40.15,-40.97,0,*58
1483257995.7,45583,10.56,73580.0,-1.83,-39.71,-40.35,0,*5B
1483257996.92,45584,10.56,73608.5,-1.85,-39.23,-40.03,0,*58
1483257998.2,45585,10.56,73606.5,-1.83,-38.91,-39.71,0,*5C
1483257999.49,45586,10.56,73604.0,-1.83,-38.79,-39.59,0,*53
1483258000.72,45587,10.56,73600.3,-1.85,-38.79,-39.47,0,*5B
1483258001.92,45588,10.56,73598.5,-1.85,-38.97,-39.65,0,*54
1483258003.2,45589,10.56,73610.8,-1.83,-38.91,-39.59,0,*5A
1483258004.4,45590,10.56,73612.5,-1.85,-38.61,-39.35,0,*51
1483258005.66,45591,10.56,73608.8,-1.83,-38.97,-39.71,0,*5F
1483258006.88,45592,10.56,73618.8,-1.83,-38.61,-39.35,0,*55
1483258008.11,45593,10.56,73614.3,-1.83,-38.55,-39.35,0,*53
1483258009.34,45594,10.56,73616.5,-1.83,-38.61,-39.35,0,*53
1483258010.54,45595,10.56,73618.8,-1.81,-38.43,-39.09,0,*5F
1483258011.77,45596,10.56,73618.0,-1.81,-38.43,-39.15,0,*51
1483258012.97,45597,10.56,73622.8,-1.81,-38.73,-39.35,0,*51
1483258014.16,45598,10.56,73620.3,-1.81,-38.55,-39.35,0,*5A
1483258015.38,45599,10.56,73622.5,-1.81,-38.73,-39.53,0,*5F
1483258016.64,45600,10.56,73624.8,-1.81,-38.79,-39.53,0,*56
1483258017.86,45601,10.56,73624.8,-1.81,-38.73,-39.41,0,*5E
1483258019.12,45602,10.56,73620.5,-1.81,-39.15,-40.09,0,*5E
1483258020.36,45603,10.56,73622.8,-1.81,-39.09,-39.79,0,*5B
1483258021.61,45604,10.56,73610.8,-1.81,-39.41,-40.29,0,*5B
1483258022.9,45605,10.56,73612.0,-1.83,-39.29,-40.09,0,*54
1483258024.19,45606,10.56,73610.5,-1.83,-39.15,-39.97,0,*51
1483258025.44,45607,10.56,73608.3,-1.83,-38.97,-39.71,0,*53
1483258026.7,45608,10.56,73618.8,-1.83,-38.55,-39.41,0,*51
1483258027.98,45609,10.56,73620.0,-1.83,-39.41,-40.29,0,*54
1483258029.24,45610,10.56,73614.5,-1.83,-39.91,-40.79,0,*54
1483258030.49,45611,10.56,73614.0,-1.81,-39.79,-40.53,0,*59
1483258031.73,45612,10.56,73612.8,-1.85,-39.79,-40.53,0,*5E
1483258032.99,45613,10.56,73618.3,-1.83,-39.15,-39.85,0,*56
1483258034.22,45614,10.56,73616.8,-1.85,-38.29,-38.97,0,*5B
1483258035.47,45615,10.56,73614.8,-1.83,-38.23,-38.97,0,*56
1483258036.73,45616,10.56,73620.0,-1.83,-38.23,-38.97,0,*55
1483258038.01,45617,10.56,73616.3,-1.83,-38.23,-38.91,0,*52
1483258039.26,45618,10.56,73618.8,-1.83,-38.23,-38.97,0,*5B
1483258040.49,45619,10.56,73622.3,-1.81,-38.23,-39.09,0,*5E
1483258041.74,45620,10.56,73620.8,-1.81,-38.23,-38.91,0,*54
1483258042.99,45621,10.56,73618.5,-1.81,-38.11,-38.91,0,*54
1483258044.23,45622,10.56,73624.3,-1.77,-38.05,-38.85,0,*5E
1483258045.49,45623,10.56,73626.5,-1.77,-38.11,-38.97,0,*59
1483258046.75,45624,10.56,73626.8,-1.77,-38.11,-38.85,0,*5D
1483258048.01,45625,10.56,73624.8,-1.77,-38.05,-38.79,0,*5A
1483258049.3,45626,10.56,73620.3,-1.77,-38.49,-39.29,0,*55
1483258050.53,45627,10.56,73624.3,-1.75,-38.43,-39.15,0,*53
1483258051.79,45628,10.56,73620.5,-1.75,-38.79,-39.41,0,*54
1483258053.03,45629,10.56,73616.8,-1.75,-38.23,-38.85,0,*53
1483258054.26,45630,10.63,73622.8,-1.75,-38.05,-38.79,0,*5C
1483258055.5,45631,10.56,73620.3,-1.75,-38.05,-38.79,0,*5D
1483258056.78,45632,10.56,73620.0,-1.73,-37.99,-38.79,0,*52
1483258058.04,45633,10.56,73620.8,-1.75,-38.29,-39.15,0,*5A
1483258059.28,45634,10.56,73622.5,-1.75,-38.29,-38.97,0,*56
1483258060.5,45635,10.56,73626.3,-1.73,-38.61,-39.35,0,*54
1483258061.73,45636,10.63,73626.0,-1.73,-38.17,-38.97,0,*5F
1483258062.95,45637,10.56,73620.8,-1.73,-38.61,-39.35,0,*56
1483258064.21,45638,10.63,73626.3,-1.73,-38.43,-39.15,0,*5B
1483258065.45,45639,10.56,73622.3,-1.71,-38.17,-38.79,0,*52
1483258066.68,45640,10.63,73626.5,-1.71,-38.43,-39.23,0,*53
1483258067.91,45641,10.56,73620.0,-1.71,-38.05,-38.91,0,*58
1483258069.12,45642,10.63,73626.8,-1.71,-38.17,-38.97,0,*5E
1483258070.38,45643,10.56,73622.0,-1.71,-37.93,-38.79,0,*5C
1483258071.64,45644,10.56,73624.3,-1.71,-37.99,-38.79,0,*51
1483258072.93,45645,10.63,73624.3,-1.69,-37.93,-38.67,0,*5C
1483258074.19,45646,10.63,73626.0,-1.69,-37.87,-38.67,0,*5A
1483258075.45,45647,10.56,73624.3,-1.69,-37.75,-38.49,0,*5A
1483258076.68,45648,10.63,73626.8,-1.69,-37.75,-38.55,0,*58
1483258077.95,45649,10.56,73624.0,-1.69,-37.87,-38.67,0,*55
1483258079.19,45650,10.56,73624.5,-1.67,-37.87,-38.67,0,*53
1483258080.42,45651,10.56,73626.0,-1.67,-37.93,-38.73,0,*52
1483258081.7,45652,10.56,73626.5,-1.65,-38.49,-39.29,0,*55
1483258082.96,45653,10.63,73630.8,-1.67,-39.29,-40.21,0,*57
1483258084.17,45654,10.56,73622.5,-1.67,-40.03,-40.73,0,*51
1483258085.41,45655,10.56,73626.0,-1.67,-39.47,-40.21,0,*59
1483258086.64,45656,10.56,73624.0,-1.67,-39.47,-40.29,0,*52
1483258087.91,45657,10.56,73622.5,-1.69,-39.71,-40.35,0,*55
1483258089.16,45658,10.63,73626.8,-1.71,-39.97,-40.79,0,*53
1483258090.41,45659,10.63,73626.8,-1.71,-40.09,-40.91,0,*5D
1483258091.66,45660,10.63,73626.3,-1.73,-39.53,-40.35,0,*5A
1483258092.92,45661,10.63,73628.0,-1.73,-39.91,-40.79,0,*5D
1483258094.21,45662,10.56,73626.0,-1.73,-40.29,-40.97,0,*53
1483258095.45,45663,10.63,73630.8,-1.75,-40.03,-40.85,0,*5F
1483258096.69,45664,10.63,73630.0,-1.75,-39.79,-40.65,0,*55
1483258097.94,45665,10.56,73628.3,-1.81,-39.97,-40.79,0,*52
1483258099.15,45666,10.63,73632.5,-1.81,-40.47,-41.29,0,*56
1483258100.42,45667,10.63,73624.8,-1.77,-40.03,-40.97,0,*5A
1483258101.67,45668,10.63,73614.3,-1.81,-40.09,-40.79,0,*56
1483258102.96,45669,10.63,73608.3,-1.83,-39.41,-40.29,0,*52